Погода в Юрьевеце

Хотите узнать прогноз погоды в Юрьевеце? Тогда Вам сюда: Погода в Юрьевеце

Поиск расширенной информации на нашем сайте:

Полезная информация:

Новости сайта



02.01.2020
Опубликован Долгосрочный прогноз погоды по городам России и ближнего зарубежья на январь 2020 года.
Карты: Прогноз на январь и февраль 2020 года, Сравнение прогнозируемой аномалии приземной температуры воздуха на январь 2020 года по разным моделям.




Погода в Юрьевеце - сегодня

Время (UTC), дата Ветер
(°,м/с) 
Видим.   Явления Облачность Т
(°С)
Тd
(°С)
f(%) Тe
(°С)
Pmin
(гПа)
dP
(гПа)
Po
(мм)
O2
(г/м3)
Тmin Tmax R s Состояние
почвы
06 29.11.20 110 (В) 4000 м  дымка{снег}  10/0 средняя 
[Ac und]
-2.6 -3.8 91 -4  1036.6  1.1  765  312           
09 29.11.20 100 (В) 4000 м  дымка{снег}  10/0 средняя 
[Ac und]
-1.6 -2.8 92 -3  1037.5  0.9  765  311           
12 29.11.20 120 (ЮВ) 4000 м  дымка{снег}  10/0 средняя 
[Ac und]
-0.9 -2.1 92 -2  1037.9  0.5  766  310           
15 29.11.20 130 (ЮВ) 10 км    10/0 средняя 
[Ac und]
-0.3 -1.6 91 -2  1038.5  0.6  766  309    -0.3  0.0     
18 29.11.20 110 (В) 4000 м  дымка  10/0 средняя 
[Ac und]
+0.2 -0.9 92 -1  1038.3  -0.2  766  309           
21 29.11.20 120 (ЮВ) 4000 м  дымка  10/0 средняя 
[Ac und]
+0.8 -0.6 90 -1  1038.3  0.1  766  308           
00 30.11.20 130 (ЮВ) 4000 м  дымка  10/0 средняя 
[Ac und]
+0.8 -0.4 92 -2  1038.3  766  308           
03 30.11.20 120 (ЮВ) 4000 м  дымка  10/0 средняя 
[Ac und]
+0.7 -0.7 90 -1  1037.8  -0.5  766  308  -0.3      18  равномерный
мокрый или
старый снег
100% 
06 30.11.20 140 (ЮВ) 4000 м  дымка  10/10 600 м 
[Sc]
+0.1 -2.3 84 -2  1037.5  -0.3  765  309           
09 30.11.20 140 (ЮВ) 4000 м  дымка  10/10 600 м 
[Sc]
-0.9 -3.6 82 -3  1037.3  -0.3  765  310           
12 30.11.20 140 (ЮВ) 10 км    10/10 600 м 
[Sc]
-1.3 -4 82 -3  1036.5  -0.8  765  310           
15 30.11.20 150 (ЮВ) 5{10}  10 км    10/10 600 м 
[Sc]
-3.7 -6.3 82 -7  1036.9  0.2  765  313    +0.7       
18 30.11.20 140 (ЮВ) 3{11}  10 км    3/3 600 м 
[Sc]
-4.8 -7.4 82 -7  1036.6  0.2  765  314           
21 30.11.20 150 (ЮВ) 10 км    ясно 
-5.1 -8.2 79 -7  1036.1  -0.5  764  315           
00 01.12.20 150 (ЮВ) 10 км    ясно 
-4.5 -8.6 73 -7  1036.3  0.3  764  314           
03 01.12.20 160 (Ю) 10 км    ясно 
-4.6 -9.3 70 -7  1036.2  0.1  764  314  -5.1      17  равномерный
сухой снег
100% 
06 01.12.20 150 (ЮВ) 10 км    4/4 600 м 
[Sc]
-4.5 -9.5 68 -8  1036.5  0.3  764  314           
09 01.12.20 150 (ЮВ) 3{10}  10 км    10/3 600 м верхняя 
[Sc|Ci sp]
-3.6 -8.6 68 -6  1036.7  0.2  765  313           
12 01.12.20 150 (ЮВ) 10 км    10/0 средняя 
[Ac und]
-3.3 -8.8 66 -5  1036.5  -0.2  764  313           
15 01.12.20 160 (Ю) 4{10}  10 км    10/0 средняя 
[Ac und]
-4.1 -9.2 68 -7  1036.6  0.1  765  314    -3.2       
18 01.12.20 150 (ЮВ) 3{10}  10 км    10/0 средняя 
[Ac und]
-4.3 -8.4 73 -7  1037.5  0.8  765  314           
21 01.12.20 160 (Ю) 10 км    10/0 средняя 
[Ac und]
-4 -8.4 71 -6  1037.7  0.3  765  314           
00 02.12.20 170 (Ю) 10 км    10/0 средняя 
[Ac und]
-4.6 -8.7 73 -6  1038.3  0.6  766  315           
03 02.12.20 160 (Ю) 10 км    10/0 средняя 
[Ac und]
-4.9 -8.5 76 -4  1038.3  766  315  -4.9      17  равномерный
сухой снег
100% 
06 02.12.20 170 (Ю) 10 км    10/0 средняя 
[Ac und]
-5 -8.3 78 -6  1039.3  0.9  767  316  -5.1         
Время (UTC), дата Ветер
(°,м/с) 
Видим.   Явления Облачность Т
(°С)
Тd
(°С)
f(%) Тe
(°С)
Pmin
(гПа)
dP
(гПа)
Po
(мм)
O2
(г/м3)
Тmin Tmax R s Состояние
почвы

Для получения пояснительной информации подведите курсор к названию столбца.

ПОГОДА в Юрьевеце - архив

Всё, что Вы хотите узнать о погоде в Юрьевеце - удобно и подробно!

Выберите нужную дату (начиная с 1 января 2019* года) и нажмите кнопку "Найти".
Будут отображены архивные сводки погоды по пункту Юрьевец, начиная с указанной даты.


Отображать данные в формате CSV (для использования в таблицах Excel)


Внимание! Наш архив погоды предназначен исключительно для личного некоммерческого использования в познавательных целях. Если Вам необходимы официальные справки о состоянии погоды (для производственных, юридических, коммерческих и т.п. целей), обращайтесь в органы Росгидромета.

*Примечание: данная дата относится к архиву по метеостанциям СССР (Россия, СНГ, Балтия).
Архив по метеостанциям Зарубежной Европы и Азии (кроме Китая) хранится 10 дней, по другим регионам земного шара (Китай, Африка, Америка, Австралия, Океания) - 1 день.

Юрьевец - район местоположения метеостанции


Название, широта, долгота, высота метеостанции:
Юрьевец 57.3°ш. 43.1°д. 132 м над ур. моря [Российская Федерация]

Дополнительная информация

В oтличие oт бoльшинства пoгoдных сайтoв мы публикуем пoдрoбную метеoинфoрмацию в детальнoм прoфессиoнальнoм фoрмате.

Характеристики температуры и влажнoсти вoздуха измеряются на высoте 2 м в тени вдали oт зданий и деревьев.
Скoрoсть ветра измеряется на высoте 10 м (на урoвне рoста челoвека скoрoсть ветра ниже в 1.5-2 раза). Если метеoстанция нахoдится в гoрoде или в лесу, тo скoрoсть ветра занижена на 2-4 м/с пo сравнению с oткрытым местoм. Скoрoсть ветра над акватoриями крупных рек и oзёр, а также на вершинах хoлмoв на 2-5 м/с выше, чем в oбычных услoвиях.
Атмoсфернoе давление в разных тoчках местнoсти мoжет значительнo oтличаться oт давления на метеoстанции, в зависимoсти oт услoвий рельефа (при пoдъёме на 10 м давление пoнижается примернo на 1 мм рт.ст.).